QPF
0.00 0.00 0.00 0.00 0.00 0.00 0.00 0.00 0.00 0.00 0.00 0.00 0.00 0.00 0.01 0.02 0.01 0.01 0.01 0.00 0.00 0.00
0.00 0.00 0.00 0.00 0.00 0.00 0.00 0.00 0.00 0.00 0.00 0.00 0.00 0.00 0.00 0.00 0.01 0.01 0.01 0.00 0.00 0.00
0.00 0.00 0.00 0.00 0.00 0.00 0.00 0.00 0.00 0.00 0.00 0.00 0.00 0.00 0.01 0.00 0.00 0.01 0.00 0.01 0.00 0.00
0.00 0.00 0.00 0.00 0.00 0.00 0.00 0.00 0.00 0.00 0.00 0.00 0.00 0.00 0.00 0.01 0.00 0.00 0.00 0.00 0.00 0.00
0.00 0.00 0.00 0.00 0.00 0.00 0.00 0.00 0.00 0.00 0.00 0.00 0.00 0.00 0.00 0.00 0.00 0.00 0.00 0.00 0.00 0.00
0.00 0.00 0.00 0.00 0.00 0.00 0.00 0.00 0.00 0.00 0.00 0.00 0.00 0.00 0.00 0.00 0.00 0.00 0.00 0.00 0.00 0.00
0.00 0.00 0.00 0.00 0.00 0.00 0.00 0.00 0.00 0.00 0.00 0.00 0.00 0.00 0.00 0.00 0.00 0.00 0.00 0.00 0.00 0.00
0.01 0.00 0.00 0.00 0.00 0.00 0.00 0.00 0.00 0.00 0.00 0.00 0.00 0.00 0.00 0.00 0.00 0.00 0.00 0.00 0.00 0.00
0.00 0.01 0.00 0.00 0.00 0.00 0.00 0.01 0.00 0.00 0.00 0.00 0.00 0.00 0.00 0.00 0.00 0.00 0.00 0.00 0.00 0.00
0.00 0.00 0.00 0.00 0.00 0.00 0.00 0.00 0.00 0.00 0.00 0.01 0.02 0.01 0.00 0.00 0.00 0.00 0.00 0.00 0.00 0.00
0.00 0.00 0.00 0.00 0.00 0.00 0.00 0.00 0.00 0.00 0.00 0.00 0.00 0.00 0.00 0.00 0.01 0.01 0.02 0.01 0.01 0.00
0.00 0.00 0.00 0.00 0.00 0.00 0.00 0.00 0.00 0.00 0.00 0.00 0.00 0.00 0.00 0.00 0.00 0.00 0.00 0.00 0.01 0.00
0.00 0.00 0.00 0.00 0.00 0.00 0.00 0.00 0.00 0.00 0.00 0.00 0.00 0.00 0.00 0.00 0.01 0.01 0.02 0.01 0.00 0.00
0.00 0.00 0.00 0.00 0.00 0.00 0.00 0.00 0.00 0.00 0.00 0.00 0.00 0.00 0.00 0.00 0.00 0.00 0.02 0.02 0.01 0.00
MSLP
1008.34 1008.74 1009.23 1009.62 1009.92 1010.32 1010.71 1011.04 1011.41 1011.58 1012.08 1013.09 1013.73 1014.64 1015.28 1015.90 1016.44 1016.94 1017.26 1017.44 1017.78 1018.16
1008.42 1008.78 1009.10 1009.53 1009.89 1010.19 1010.49 1010.97 1011.32 1011.74 1012.20 1012.81 1013.75 1014.25 1014.88 1015.58 1016.03 1016.47 1016.54 1017.03 1017.16 1017.55
1008.37 1008.80 1009.19 1009.60 1009.92 1010.18 1010.48 1010.73 1011.11 1011.61 1012.25 1012.80 1013.29 1013.83 1014.43 1014.89 1015.39 1015.71 1016.07 1016.37 1016.72 1017.09
1008.04 1008.54 1009.05 1009.44 1009.84 1010.12 1010.39 1010.62 1010.98 1011.43 1011.88 1012.43 1012.96 1013.49 1013.98 1014.30 1014.76 1015.06 1015.28 1015.60 1016.01 1016.20
1007.72 1008.20 1008.70 1009.04 1009.44 1009.86 1010.28 1010.63 1010.93 1011.24 1011.61 1012.00 1012.35 1012.87 1013.30 1013.66 1013.98 1014.35 1014.65 1014.89 1015.30 1015.31
1007.65 1007.95 1008.33 1008.63 1008.92 1009.40 1009.86 1010.27 1010.67 1010.97 1011.27 1011.56 1011.88 1012.27 1012.63 1012.90 1013.20 1013.45 1013.66 1013.94 1014.22 1014.45
1007.58 1007.82 1008.20 1008.44 1008.73 1009.02 1009.31 1009.63 1009.99 1010.33 1010.65 1010.97 1011.29 1011.53 1011.83 1012.17 1012.44 1012.61 1012.82 1013.01 1013.06 1013.21
1007.75 1007.65 1007.92 1008.26 1008.47 1008.68 1008.89 1009.10 1009.32 1009.67 1009.95 1010.18 1010.50 1010.82 1011.25 1011.51 1011.61 1011.72 1011.81 1011.89 1011.97 1012.10
1008.58 1008.35 1008.49 1008.57 1008.48 1008.55 1008.66 1008.77 1008.94 1009.16 1009.33 1009.56 1009.81 1010.10 1010.29 1010.38 1010.49 1010.60 1010.77 1010.84 1010.91 1010.96
1009.87 1009.46 1009.63 1009.40 1009.41 1009.58 1009.73 1009.71 1009.35 1009.17 1008.96 1009.03 1009.67 1010.99 1010.80 1010.24 1009.75 1009.67 1009.77 1009.86 1009.83 1009.83
1011.05 1010.90 1010.82 1010.51 1010.53 1010.66 1010.75 1010.84 1011.03 1011.19 1011.07 1010.76 1011.53 1011.54 1011.06 1010.52 1010.21 1009.71 1009.31 1009.29 1009.47 1010.21
1012.29 1012.10 1011.88 1011.84 1011.86 1011.94 1012.00 1012.24 1012.40 1012.61 1012.58 1012.50 1012.62 1012.12 1011.33 1010.59 1010.14 1010.13 1011.14 1011.78 1012.00 1011.80
1013.47 1013.32 1013.21 1013.12 1013.09 1013.20 1013.16 1013.41 1013.66 1013.75 1013.82 1013.79 1013.55 1012.96 1011.93 1011.01 1010.79 1011.28 1012.06 1012.73 1012.95 1012.87
1014.57 1014.37 1014.26 1014.18 1014.07 1014.22 1014.24 1014.31 1014.57 1014.72 1014.89 1014.80 1014.63 1014.15 1013.44 1012.81 1012.49 1012.95 1013.32 1013.80 1014.17 1014.17
Thickness
5619 5615 5611 5607 5605 5602 5601 5599 5597 5599 5596 5590 5586 5581 5580 5578 5576 5573 5571 5572 5572 5570
5616 5614 5612 5609 5606 5603 5601 5598 5596 5594 5593 5591 5584 5582 5579 5575 5573 5571 5573 5570 5570 5568
5614 5610 5608 5606 5604 5603 5601 5600 5597 5594 5591 5587 5583 5581 5577 5576 5573 5572 5570 5570 5568 5566
5613 5610 5607 5605 5603 5601 5599 5599 5596 5593 5589 5586 5582 5580 5577 5576 5574 5572 5572 5571 5569 5568
5613 5610 5608 5607 5604 5601 5599 5596 5595 5593 5591 5588 5585 5581 5579 5577 5575 5573 5571 5570 5568 5569
5610 5610 5607 5607 5606 5602 5599 5597 5594 5592 5591 5589 5588 5585 5582 5580 5577 5575 5574 5572 5571 5569
5607 5606 5603 5602 5601 5600 5599 5598 5596 5594 5592 5590 5588 5587 5584 5581 5578 5577 5576 5575 5575 5574
5598 5600 5600 5598 5598 5598 5598 5597 5596 5594 5593 5592 5590 5587 5582 5580 5579 5579 5578 5577 5577 5576
5582 5585 5586 5589 5592 5593 5594 5594 5594 5593 5592 5590 5589 5583 5580 5581 5581 5581 5579 5578 5576 5575
5565 5571 5572 5576 5577 5576 5575 5577 5583 5585 5588 5588 5580 5566 5568 5573 5580 5579 5577 5576 5576 5574
5550 5552 5554 5558 5559 5559 5560 5559 5558 5557 5558 5562 5554 5556 5559 5561 5563 5567 5569 5568 5565 5557
5532 5535 5537 5538 5539 5539 5539 5538 5537 5536 5536 5536 5535 5540 5546 5551 5553 5551 5537 5531 5527 5528
5514 5516 5517 5519 5519 5519 5520 5518 5516 5515 5514 5514 5515 5519 5527 5534 5534 5524 5515 5508 5505 5506
5495 5497 5499 5499 5500 5499 5500 5500 5497 5495 5493 5493 5492 5495 5499 5503 5504 5497 5491 5485 5479 5478